sat.trackr.live / text

‹ back to catalog

STARLINK-35859

NORAD 67185 · 2025-303Y

PAYLOAD ACTIVE UNKNOWN

§ Identity

Operator
Country
US
Launch date
2025-12-17
Launch site
AFETR
Launch vehicle
Mass (kg)
RCS (m²)

Purposes: comms

External: N2YO · Heavens-Above · Gunter

§ Orbital elements

Epoch: 2026-05-24T23:02:33.929088Z

Period
94.27 min
Inclination
42.9973°
Eccentricity
0.0001287
Mean motion
15.27581560 rev/d
Perigee alt
482.2 km
Apogee alt
483.9 km
Semi-major
6,861.2 km
B*
3.8125e-4
RAAN
239.6364°
Arg perigee
275.4508°
Mean anomaly
84.6197°
Rev number
2,440

§ Raw data

STARLINK-358591 67185U 25303Y   26144.96011492  .00010244  00000+0  38125-3 0  99912 67185  42.9973 239.6364 0001287 275.4508  84.6197 15.27581560 24400

JSON: /api/v1/satellites/67185 · /tle

For live sub-satellite position, see the globe view (requires WebGL).

§ Visibility from observer

Set your observer location to see the next 7 days of passes ≥ 10°. The values pass through the URL so the page stays shareable.

No JS? Fill the form by hand. The geolocation button needs JavaScript.